This demonstration page uses our WeatherBlox Daily Observations layout. Learn more.

Left ArrowRight Arrow

33.98154, -81.23621

Hourly Observations for July 6, 2022

Temp ( °F °C ) Dew Point ( °F °C ) Humidity (%) Winds ( mph kmh ) Pressure ( in mb ) Visibility ( mi km ) Precip ( " mm )
12:30 am 00:30 Cloudy with Thunderstorms 74 23.3 72 22.2 94 94 Calm 30.03 1017 8 13 0.02 0.51
12:47 am 00:47 Cloudy 74 23.3 72 22.2 94 94 S 5 7 30.03 1017 10 16 0.02 0.51
12:56 am 00:56 Mostly Cloudy with Light Rain 74 23.3 72 22.2 94 94 SW 8 13 30.02 1017 10 16 0.02 0.51
1:23 am 01:23 Mostly Clear with Nearby Thunderstorms 73 23 73 23 100 100 S 12 19 30.01 1016 10 16 0.00 0.00
1:38 am 01:38 Mostly Cloudy with Light Rain 75 23.9 73 22.8 94 94 SSW 5 7 30.00 1016 10 16 0.01 0.25
1:56 am 01:56 Partly Cloudy 75 23.9 73 22.8 94 94 NNE 7 11 30.01 1016 10 16 0.01 0.25
2:56 am 02:56 Cloudy with Light Rain 74 23.3 73 22.8 97 97 NNE 7 11 30.02 1017 8 13 0.05 1.27
3:24 am 03:24 Mostly Cloudy 74 23.3 73 22.8 97 97 E 5 7 30.00 1016 10 16 0.01 0.25
3:56 am 03:56 Partly Cloudy 74 23.3 73 22.8 97 97 SW 3 6 29.99 1016 10 16 0.01 0.25
4:56 am 04:56 Clear 75 23.9 74 23.3 96 96 WNW 6 9 29.98 1015 10 16 0.00 0.00
5:56 am 05:56 Clear 74 23.3 74 23.3 100 100 Calm 29.99 1016 10 16 0.00 0.00
6:56 am 06:56 Mostly Cloudy 75 23.9 74 23.3 96 96 SE 3 6 30.00 1016 10 16 0.00 0.00
7:56 am 07:56 Mostly Cloudy 77 25 75 23.9 94 94 ESE 3 6 30.01 1016 9 14 0.00 0.00
8:56 am 08:56 Mostly Cloudy 79 26.1 76 24.4 90 90 SSW 5 7 30.02 1017 10 16 0.00 0.00
9:56 am 09:56 Mostly Cloudy 82 27.8 77 25 85 85 WSW 5 7 30.02 1017 10 16 0.00 0.00
10:56 am 10:56 Mostly Cloudy 83 28.3 77 25 82 82 WSW 5 7 30.02 1017 10 16 0.00 0.00
11:56 am 11:56 Partly Cloudy 86 30 78 25.6 77 77 WSW 5 7 30.01 1016 10 16 0.00 0.00
12:56 pm 12:56 Mostly Sunny 90 32.2 78 25.6 68 68 WSW 8 13 30.00 1016 10 16 0.00 0.00
1:56 pm 13:56 Partly Cloudy 93 33.9 78 25.6 62 62 S 9 15 29.97 1015 10 16 0.00 0.00
2:56 pm 14:56 Mostly Cloudy 95 35 78 25.6 58 58 VRB 7 11 29.94 1014 10 16 0.00 0.00
3:36 pm 15:36 Partly Cloudy with Nearby Thunderstorms 94 34.4 76 24.4 56 56 WSW 8 13 29.91 1013 10 16 0.00 0.00
3:56 pm 15:56 Mostly Cloudy with Nearby Thunderstorms 88 31.1 78 25.6 73 73 SSE 24 39 29.93 1013 10 16 0.00 0.00
4:03 pm 16:03 Cloudy with Light Rain 88 31 77 25 70 70 SSE 18 30 29.92 1013 10 16 0.00 0.00
4:08 pm 16:08 Cloudy with Nearby Thunderstorms 86 30 76 24.4 72 72 SE 16 26 29.93 1013 10 16 0.00 0.00
4:34 pm 16:34 Cloudy with Light Rain 84 28.9 78 25.6 82 82 SSE 13 20 29.93 1013 6 10 0.05 1.27
4:56 pm 16:56 Mostly Cloudy 85 29.4 79 26.1 82 82 ESE 9 15 29.93 1014 10 16 0.07 1.78
5:56 pm 17:56 Mostly Cloudy 89 31.7 75 23.9 63 63 SSE 5 7 29.91 1013 10 16 0.00 0.00
6:56 pm 18:56 Mostly Cloudy 85 29.4 76 24.4 75 75 SW 12 19 29.94 1014 10 16 0.00 0.00
7:56 pm 19:56 Mostly Cloudy 83 28.3 75 23.9 77 77 SSW 7 11 29.92 1013 10 16 0.00 0.00
8:56 pm 20:56 Mostly Cloudy 83 28.3 75 23.9 77 77 WNW 8 13 29.97 1015 10 16 0.00 0.00
9:19 pm 21:19 Mostly Cloudy with Thunderstorms 83 28.3 74 23.3 74 74 VRB 6 9 29.98 1015 10 16 0.00 0.00
9:40 pm 21:40 Mostly Cloudy with Nearby Thunderstorms 82 27.8 74 23.3 77 77 N 6 9 29.97 1015 9 14 0.00 0.00
9:56 pm 21:56 Mostly Cloudy 81 27.2 74 23.3 79 79 ENE 3 6 29.95 1014 10 16 0.00 0.00
10:45 pm 22:45 Cloudy with Nearby Thunderstorms 79 26.1 75 23.9 88 88 Calm 29.97 1015 10 16 0.00 0.00
10:56 pm 22:56 Cloudy 80 26.7 75 23.9 85 85 W 3 6 29.97 1015 10 16 0.00 0.00
11:56 pm 23:56 Cloudy 80 26.7 75 23.9 85 85 E 5 7 29.99 1016 10 16 0.00 0.00

Powered by AerisWeather